[[{"header":{"parameterUnit":"m.s-1","parameterCategory":1,"la1":30.2992,"la2":30.254,"lo1":-89.0895,"lo2":-89.0443,"dy":0.0025,"dx":0.0025,"nx":19,"ny":19,"refTime":"2026-05-18T21:00:00:Z","depth":0,"parameterNumber":2,"parameterNumberName":"U-component_of_WINDS"},"data":[0,0,0,-4.601,-4.6011,-4.6045,-4.6045,-4.6105,-4.6106,0,0,0,0,0,0,0,0,0,0,0,-4.601,-4.6011,-4.601,-4.6012,-4.6045,-4.6045,-4.6105,-4.6106,0,0,0,0,0,0,0,0,0,0,0,-4.601,-4.6011,-4.6012,-4.6012,-4.6045,-4.6045,-4.6105,-4.6073,0,0,0,0,0,0,0,0,0,0,-4.6038,-4.6047,-4.6011,-4.6012,-4.6012,-4.6045,-4.6045,-4.6072,-4.6075,-4.6097,0,-4.6119,0,-4.6114,-4.6111,-4.6111,0,0,0,-4.6004,-4.6044,-4.6045,-4.6012,-4.6012,-4.6045,-4.6028,-4.6074,-4.6078,-4.6102,-4.6119,-4.6121,-4.6115,-4.6111,-4.6112,-4.6262,-4.6263,0,0,-4.6002,-4.6022,-4.6042,-4.6048,-4.6044,-4.6027,-4.6029,-4.6076,-4.6096,-4.612,-4.6122,-4.6116,-4.6112,-4.6113,-4.6261,-4.6262,0,0,0,-4.6002,-4.6021,-4.6019,-4.6046,-4.6051,-4.6028,-4.603,-4.6094,-4.6092,-4.6123,-4.6116,-4.6112,-4.6113,-4.626,-4.6261,-4.6332,0,0,0,-4.6,-4.602,-4.6019,-4.6031,-4.605,-4.6073,-4.6048,-4.6089,-4.6093,-4.6116,-4.6112,-4.6114,-4.6259,-4.6261,-4.6327,-4.6361,0,0,0,-4.6005,-4.6021,-4.6029,-4.6032,-4.6047,-4.6071,-4.6072,-4.6089,-4.609,-4.6111,-4.6114,-4.6258,-4.626,-4.6323,-4.6354,-4.6405,0,0,0,-4.6015,-4.6091,-4.6031,-4.6113,-4.6047,-4.6115,-4.6071,-4.6121,-4.6148,-4.6113,-4.6259,-4.6261,-4.6322,-4.635,-4.6401,-4.645,-4.6473,0,0,-4.6121,-4.6104,-4.6151,-4.6098,-4.6182,-4.6109,-4.6202,-4.6209,-4.6193,-4.624,-4.6243,-4.6329,-4.6354,-4.6404,-4.6598,-4.6616,0,0,0,-4.6192,-4.6225,-4.6243,-4.627,-4.6278,-4.6287,-4.6277,-4.628,-4.6319,-4.6221,-4.6361,-4.6376,-4.6405,-4.6427,-4.6443,-4.6466,-4.6273,-4.6273,-4.6273,-4.6368,-4.6345,-4.6421,-4.6403,-4.643,-4.642,-4.644,-4.6442,-4.641,-4.6444,-4.6457,-4.6577,-4.6604,-4.6616,-4.664,-4.6483,-4.6483,-4.6483,-4.6483,-4.652,-4.6564,-4.6522,-4.6581,-4.6557,-4.6606,-4.6601,-4.6577,-4.6619,-4.6565,-4.6589,-4.653,-4.6637,-4.6657,-4.6488,-4.6488,-4.6487,-4.6486,-4.6486,-4.6631,-4.6648,-4.6651,-4.6689,-4.6721,-4.6701,-4.6744,-4.6721,-4.6699,-4.6723,-4.6734,-4.6733,-4.6727,-4.6731,-4.6731,-4.6731,-4.6732,-4.6732,-4.6732,-4.6744,-4.6746,-4.6785,-4.6801,-4.6816,-4.6833,-4.6826,-4.684,-4.685,-4.683,-4.683,-4.6794,-4.6652,-4.6616,-4.6739,-4.6738,-4.6737,-4.6736,-4.6736,-4.6903,-4.6864,-4.6924,-4.694,-4.6958,-4.6991,-4.6962,-4.6994,-4.7003,-4.7025,-4.6986,-4.6885,-4.6865,-4.6853,-4.6822,-4.6991,-4.6991,-4.6991,-4.6991,-4.6995,-4.6984,-4.7041,-4.7067,-4.7091,-4.7071,-4.7141,-4.7137,-4.7127,-4.7132,-4.7105,-4.7063,-4.7052,-4.7039,-4.7022,-4.6993,-4.7202,-4.7202,-4.7202,-4.7091,-4.7082,-4.7144,-4.7135,-4.7148,-4.716,-4.7224,-4.7257,-4.7238,-4.721,-4.7134,-4.7125,-4.7058,-4.7038,-4.7005,-4.698,-4.6926,0,0]},{"header":{"parameterUnit":"m.s-1","parameterCategory":1,"la1":30.2992,"la2":30.254,"lo1":-89.0895,"lo2":-89.0443,"dy":0.0025,"dx":0.0025,"nx":19,"ny":19,"refTime":"2026-05-18T21:00:00:Z","depth":0,"parameterNumber":3,"parameterNumberName":"V-component_of_WINDS"},"data":[0,0,0,2.0746,2.0745,2.071,2.071,2.0662,2.0661,0,0,0,0,0,0,0,0,0,0,0,2.0753,2.0753,2.0746,2.0745,2.071,2.071,2.0662,2.0661,0,0,0,0,0,0,0,0,0,0,0,2.0754,2.0753,2.0753,2.0745,2.071,2.071,2.0662,2.069,0,0,0,0,0,0,0,0,0,0,2.0724,2.0728,2.0753,2.0753,2.0745,2.071,2.071,2.0691,2.0688,2.0676,0,2.0665,0,2.0662,2.0658,2.0658,0,0,0,2.0747,2.0731,2.0724,2.0753,2.0744,2.071,2.0726,2.0689,2.0686,2.0672,2.0664,2.0662,2.0662,2.0658,2.0657,2.0586,2.0585,0,0,2.0748,2.0745,2.0727,2.0722,2.0727,2.0727,2.0725,2.0687,2.0678,2.0664,2.0661,2.0661,2.0657,2.0657,2.0586,2.0585,0,0,0,2.0753,2.0747,2.0741,2.0724,2.0718,2.0726,2.0724,2.068,2.0678,2.0661,2.066,2.0657,2.0656,2.0586,2.0586,2.0563,0,0,0,2.0754,2.0749,2.0742,2.0739,2.0718,2.0698,2.0717,2.0681,2.0677,2.0661,2.0657,2.0656,2.0587,2.0586,2.0565,2.0552,0,0,0,2.0756,2.0749,2.0744,2.0739,2.0725,2.0699,2.0695,2.068,2.0676,2.0658,2.0656,2.0587,2.0586,2.0566,2.0554,2.0533,0,0,0,2.0758,2.0722,2.0743,2.0704,2.0725,2.0686,2.0696,2.0666,2.0648,2.0657,2.0587,2.0586,2.0566,2.0556,2.0535,2.0514,2.0506,0,0,2.0711,2.0716,2.0693,2.0711,2.0668,2.0691,2.0644,2.0629,2.063,2.06,2.0599,2.0564,2.0554,2.0533,2.0459,2.0452,0,0,0,2.0677,2.0661,2.065,2.0633,2.0622,2.0613,2.0606,2.0601,2.0577,2.0614,2.0551,2.0545,2.0533,2.0523,2.0518,2.0508,2.0581,2.0582,2.0582,2.0604,2.061,2.0573,2.0574,2.0558,2.0554,2.0541,2.0534,2.0541,2.0527,2.0517,2.0472,2.0461,2.0456,2.0446,2.0508,2.0508,2.0507,2.0507,2.0536,2.0514,2.0529,2.0499,2.0505,2.0479,2.0475,2.0482,2.0459,2.0478,2.0468,2.0488,2.0449,2.044,2.0506,2.0506,2.0506,2.0506,2.0507,2.0488,2.0479,2.0475,2.0454,2.0437,2.0441,2.042,2.0426,2.0431,2.0421,2.0412,2.0413,2.0414,2.0417,2.0417,2.0416,2.0416,2.0416,2.0416,2.0439,2.0437,2.0418,2.0407,2.0399,2.0389,2.0388,2.038,2.0372,2.0378,2.0378,2.0388,2.0444,2.0458,2.0414,2.0414,2.0414,2.0415,2.0415,2.0367,2.0385,2.0357,2.0349,2.0339,2.0323,2.0332,2.0317,2.0311,2.0301,2.0315,2.0355,2.036,2.0365,2.0376,2.0314,2.0314,2.0313,2.0313,2.0326,2.0331,2.0305,2.0293,2.0281,2.0288,2.0258,2.0258,2.0259,2.0257,2.0267,2.0284,2.0288,2.0291,2.0297,2.0308,2.0228,2.0228,2.0228,2.0282,2.0287,2.0259,2.0263,2.0256,2.0251,2.0223,2.0208,2.0214,2.0225,2.0255,2.0259,2.0285,2.0293,2.0301,2.0311,2.0331,0,0]}]]